{"data":{"norad_id":66854,"intl_designator":"2025-281G","name":"STARLINK-36087","alt_names":[],"object_type":"PAYLOAD","status":"ACTIVE","operator":null,"country":"US","launch_date":"2025-12-02","launch_site_code":"AFETR","launch_vehicle":null,"mission":null,"orbit_class":"UNKNOWN","rcs_meters":null,"size_class":null,"mass_kg":null,"dimensions":null,"purposes":["comms"],"wikipedia_slug":null,"has_3d_model":false,"image_url":null,"decayed_at":null,"tle_current":{"epoch":"2026-05-24T16:53:03.239808Z","epoch_age_seconds":100418,"freshness":"FRESH","line1":"1 66854U 25281G   26144.70350972  .00025244  00000+0  92405-3 0  9996","line2":"2 66854  42.9992 273.9499 0001050 275.4961  84.5771 15.27568525 27815","mean_motion":15.27568525,"eccentricity":0.000105,"inclination_deg":42.9992,"raan_deg":273.9499,"arg_perigee_deg":275.4961,"mean_anomaly_deg":84.5771,"bstar":0.00092405,"rev_number":2781,"period_min":94.26745683962,"perigee_km":482.36302838492,"apogee_km":483.80388468079,"semimajor_km":6861.2204565329,"source":"CELESTRAK","updated_at":"2026-05-25T13:38:21.341099Z"}}}